This demonstration page uses our WeatherBlox Daily Observations layout. Learn more.

Left ArrowRight Arrow

Hourly Observations for May 29, 2020

Temp ( °F °C ) Dew Point ( °F °C ) Humidity (%) Winds ( mph kmh ) Pressure ( in mb ) Visibility ( mi km ) Precip ( " mm )
12:56 am 00:56 Clear 57 13.9 42 5.6 58 58 N 6 9 30.19 1022 10 16 0.00 0.00
1:56 am 01:56 Clear 55 12.8 43 6.1 64 64 NNW 6 9 30.19 1022 10 16 0.00 0.00
2:56 am 02:56 Clear 52 11.1 44 6.7 75 75 WNW 7 11 30.19 1022 10 16 0.00 0.00
3:56 am 03:56 Clear 52 11.1 43 6.1 72 72 WNW 3 6 30.19 1022 10 16 0.00 0.00
4:56 am 04:56 Clear 52 11.1 43 6.1 72 72 NW 7 11 30.20 1023 10 16 0.00 0.00
5:56 am 05:56 Mostly Cloudy 54 12.2 44 6.7 69 69 W 3 6 30.21 1023 10 16 0.00 0.00
6:56 am 06:56 Cloudy 55 12.8 45 7.2 69 69 WNW 5 7 30.22 1023 10 16 0.00 0.00
7:56 am 07:56 Cloudy 57 13.9 46 7.8 67 67 NW 5 7 30.23 1024 10 16 0.00 0.00
8:56 am 08:56 Mostly Cloudy 61 16.1 47 8.3 60 60 NW 5 7 30.24 1024 10 16 0.00 0.00
9:56 am 09:56 Mostly Cloudy 65 18.3 46 7.8 51 51 NNW 5 7 30.24 1024 10 16 0.00 0.00
10:56 am 10:56 Cloudy 69 20.6 44 6.7 41 41 W 3 6 30.23 1024 10 16 0.00 0.00
11:56 am 11:56 Mostly Cloudy 71 21.7 43 6.1 36 36 VRB 5 7 30.22 1024 10 16 0.00 0.00
12:56 pm 12:56 Cloudy 72 22.2 44 6.7 37 37 VRB 3 6 30.21 1023 10 16 0.00 0.00
1:56 pm 13:56 Cloudy 73 22.8 47 8.3 40 40 ESE 8 13 30.19 1022 10 16 0.00 0.00
2:56 pm 14:56 Mostly Cloudy 74 23.3 46 7.8 37 37 E 7 11 30.18 1022 10 16 0.00 0.00
3:56 pm 15:56 Sunny 76 24.4 47 8.3 36 36 VRB 6 9 30.17 1022 10 16 0.00 0.00
4:56 pm 16:56 Sunny 75 23.9 45 7.2 34 34 ENE 5 7 30.16 1021 10 16 0.00 0.00
5:56 pm 17:56 Sunny 76 24.4 46 7.8 35 35 E 8 13 30.15 1021 10 16 0.00 0.00
6:56 pm 18:56 Sunny 75 23.9 47 8.3 37 37 E 8 13 30.14 1021 10 16 0.00 0.00
7:56 pm 19:56 Sunny 73 22.8 47 8.3 40 40 E 14 22 30.14 1021 10 16 0.00 0.00
8:56 pm 20:56 Sunny 68 20 49 9.4 51 51 E 10 17 30.15 1021 10 16 0.00 0.00
9:56 pm 21:56 Clear 65 18.3 51 10.6 61 61 E 10 17 30.16 1021 10 16 0.00 0.00
10:56 pm 22:56 Clear 61 16.1 51 10.6 70 70 E 8 13 30.19 1022 10 16 0.00 0.00
11:56 pm 23:56 Clear 61 16.1 50 10 67 67 ESE 8 13 30.18 1022 10 16 0.00 0.00

Powered by AerisWeather